Francistown, Botswana

4:11 PM CAT on February 26, 2017 (GMT +0200)
Francistown

Weather History for FBFT - April, 2013

Change the Weather History Date:

Saturday, April 27, 2013

  Actual Average Record
Temperature  
Mean Temperature 63 °F -  
Max Temperature 78 °F 77 °F 91 °F (2007)
Min Temperature 48 °F 47 °F 42 °F (2008)
Degree Days  
Heating Degree Days 2    
Growing Degree Days 13 (Base 50)    
Moisture  
Dew Point 49 °F    
Average Humidity 58    
Maximum Humidity 82    
Minimum Humidity 39    
Precipitation  
Precipitation 0.00 in - - ()
Sea Level Pressure  
Sea Level Pressure 30.20 in    
Wind  
Wind Speed 6 mph ()    
Max Wind Speed 16 mph    
Max Gust Speed -    
Visibility 6.0 miles    
Events      
Averages and records for this station are not official NWS values.
T = Trace of Precipitation, MM = Missing Value Source: Averaged Metar Reports

Daily Weather History Graph

Daily Weather History Graph

Search for Another Location

Airport or City:

Trip Planner

Search our weather history database for the weather conditions in past years. The results will help you decide how hot, cold, wet, or windy it might be!

Date:

Astronomy

Apr. 27, 2013 Rise Set
Actual Time 6:25 AM CAT 5:49 PM CAT
Civil Twilight 6:03 AM CAT 6:11 PM CAT
Nautical Twilight 5:36 AM CAT 6:38 PM CAT
Astronomical Twilight 5:10 AM CAT 7:04 PM CAT
Moon 7:23 PM CAT (4/27) 7:55 AM CAT (4/27)
Length of Visible Light 12h 08m
Length of Day
11h 23m
Waning Gibbous, 96% of the Moon is Illuminated
Apr 27
Waning Gibbous
May 2
Last Quarter
May 10
New
May 18
First Quarter
May 25
Full

Hourly Weather History & Observations

Time (CAT) Temp. Dew Point Humidity Pressure Visibility Wind Dir Wind Speed Gust Speed Precip Events Conditions
12:00 AM 57.2 °F 50.0 °F 77% 30.24 in - SE 5.8 mph - N/A   Clear
2:00 AM 53 °F 46 °F 68%  in 6 mi NNW 3.5 mph - -   Partly Cloudy
3:00 AM 51.8 °F 46.4 °F 82% 30.21 in - NE 5.8 mph - N/A   Clear
4:00 AM 51.8 °F 44.6 °F 76% 30.21 in - SE 4.6 mph - N/A   Clear
5:00 AM 50.0 °F 42.8 °F 76% 30.21 in - Calm Calm - N/A   Clear
6:00 AM 59.0 °F 41.0 °F 51% 30.18 in - NNE 3.5 mph - N/A   Clear
7:00 AM 50.0 °F 44.6 °F 82% 30.24 in - NNW 4.6 mph - N/A   Clear
8:00 AM 57 °F 49 °F 67%  in 6 mi ENE 1.2 mph - -  
8:00 AM 57.2 °F 48.2 °F 72% 30.24 in - Variable 1.2 mph - N/A   Clear
9:00 AM 68.0 °F 51.8 °F 56% 30.27 in - East 12.7 mph - N/A   Clear
10:00 AM 69.8 °F 50.0 °F 49% 30.27 in - East 11.5 mph - N/A   Clear
11:00 AM 73.4 °F 50.0 °F 44% 30.24 in - East 11.5 mph - N/A   Clear
12:00 PM 77.0 °F 50.0 °F 39% 30.21 in - East 15.0 mph - N/A   Clear
1:00 PM 77.0 °F 51.8 °F 41% 30.21 in - East 16.1 mph - N/A   Clear
2:00 PM 78.8 °F 51.8 °F 39% 30.15 in - SE 6.9 mph - N/A   Clear
3:00 PM 78.8 °F 51.8 °F 39% 30.15 in - East 11.5 mph - N/A   Clear
4:00 PM 78.8 °F 51.8 °F 39% 30.12 in - ESE 12.7 mph - N/A   Clear
5:00 PM 77.0 °F 51.8 °F 41% 30.12 in - SE 11.5 mph - N/A   Clear
6:00 PM 73.4 °F 50.0 °F 44% 30.15 in - ESE 6.9 mph - N/A   Clear
7:00 PM 69.8 °F 50.0 °F 49% 30.15 in - ESE 6.9 mph - N/A   Clear
8:00 PM 64.4 °F 50.0 °F 59% 30.18 in - ESE 6.9 mph - N/A   Clear
9:00 PM 66.2 °F 51.8 °F 60% 30.18 in - SE 5.8 mph - N/A   Clear
10:00 PM 64.4 °F 51.8 °F 64% 30.21 in - ESE 9.2 mph - N/A   Clear
11:00 PM 60.8 °F 50.0 °F 68% 30.21 in - ESE 9.2 mph - N/A   Clear